GW6141 Weather Reports


time (UTC)temp
C
wind
direction
speed
KPH
gust
KPH
rain 1hr
cm
rain 24hr
cm
rain mn
cm
humidity
%
barometer
mb
20260506134512 16 288 0.0 14.5 0.03 0.10 0.10 79 1011.0
20260506133016 16 0.0 0.0 0.00 0.08 0.08 79 1010.8
20260506131532 16 0.0 0.0 0.03 0.08 0.08 76 1010.9
20260506130024 16 0.0 0.0 0.08 0.08 0.08 74 1011.0
20260506124527 15 0.0 0.0 0.08 0.08 0.08 76 1011.0
20260506123013 16 0.0 0.0 0.08 0.08 0.08 81 1010.7
20260506121515 16 0.0 0.0 0.05 0.05 0.05 82 1010.7
20260506120022 17 0.0 0.0 0.00 0.00 0.00 78 1011.0
20260506114531 17 0.0 0.0 0.00 0.00 0.00 75 1010.7
20260506113037 17 0.0 0.0 0.00 0.00 0.00 75 1010.4
20260506111516 17 0.0 0.0 0.00 0.00 0.00 75 1010.2
20260506110020 17 0.0 0.0 0.00 0.00 0.00 75 1009.9
20260506104525 17 0.0 0.0 0.00 0.00 0.00 75 1009.8
20260506103028 17 0.0 0.0 0.00 0.00 0.00 75 1010.0
20260506101530 17 0.0 0.0 0.00 0.00 0.00 75 1010.1
20260506100018 17 0.0 0.0 0.00 0.00 0.00 74 1010.1
20260506094522 17 0.0 0.0 0.00 0.00 0.00 74 1010.0
20260506093024 17 0.0 0.0 0.00 0.00 0.00 74 1010.3
20260506091526 17 0.0 0.0 0.00 0.00 0.00 75 1010.2
20260506090021 17 0.0 0.0 0.00 0.00 0.00 75 1010.3
20260506084521 16 0.0 0.0 0.00 0.00 0.00 77 1010.4
20260506083023 16 0.0 0.0 0.00 0.00 0.00 79 1010.5
20260506081527 15 0.0 0.0 0.00 0.00 0.00 80 1010.6
20260506073022 15 0.0 0.0 0.00 0.00 0.00 76 1010.9
20260506071526 15 0.0 0.0 0.00 0.00 0.00 75 1011.0
20260506061522 17 0.0 0.0 0.00 0.00 0.00 66 1011.3
20260506044510 17 0.0 0.0 0.00 0.00 0.00 60 1011.5
20260506043014 17 0.0 0.0 0.00 0.00 0.00 60 1011.3
20260506041520 18 0.0 0.0 0.00 0.00 0.00 59 1011.3
20260506040024 18 0.0 0.0 0.00 0.00 0.00 59 1011.4
20260506034517 17 0.0 0.0 0.00 0.00 0.00 61 1011.4
20260506033011 17 0.0 0.0 0.00 0.00 0.00 63 1011.5
20260506031519 17 0.0 0.0 0.00 0.00 0.00 63 1011.5
20260506030034 17 0.0 0.0 0.00 0.00 0.00 64 1011.5
20260506024550 17 0.0 0.0 0.00 0.00 0.00 62 1011.6
20260506023012 17 0.0 0.0 0.00 0.00 0.00 61 1011.8
20260506021532 17 0.0 0.0 0.00 0.00 0.00 59 1011.8
20260506020028 18 0.0 0.0 0.00 0.00 0.00 57 1011.6
20260506014522 18 0.0 0.0 0.00 0.00 0.00 55 1011.4
20260506013009 19 0.0 0.0 0.00 0.00 0.00 53 1011.4
20260506011512 20 252 0.0 0.0 0.00 0.00 0.00 50 1011.2
20260506010030 21 252 0.0 0.0 0.00 0.00 0.00 47 1011.2
20260506004506 21 252 0.0 0.0 0.00 0.00 0.00 44 1011.1
20260506003028 22 257 0.0 4.8 0.00 0.00 0.00 42 1010.9
20260506001510 23 285 0.0 6.4 0.00 0.00 0.00 41 1010.8
20260506000022 23 269 1.6 12.9 0.00 0.00 0.00 39 1010.7
20260505234517 23 85 0.0 11.3 0.00 0.00 0.00 38 1010.5
20260505233025 24 254 0.0 3.2 0.00 0.00 0.00 38 1010.5
20260505231525 25 0.0 0.0 0.00 0.00 0.00 36 1010.3
20260505230027 25 0.0 0.0 0.00 0.00 0.00 36 1010.5
20260505224518 25 0.0 0.0 0.00 0.00 0.00 35 1010.7
20260505223027 25 0.0 0.0 0.00 0.00 0.00 35 1010.9
20260505221523 25 0.0 0.0 0.00 0.00 0.00 35 1010.9
20260505220030 26 0.0 0.0 0.00 0.00 0.00 34 1010.8
20260505214512 26 0.0 0.0 0.00 0.00 0.00 32 1010.6
20260505213021 26 0.0 0.0 0.00 0.00 0.00 34 1010.6
20260505211522 26 0.0 0.0 0.00 0.00 0.00 34 1010.7
20260505210026 26 0.0 0.0 0.00 0.00 0.00 32 1010.7
20260505204530 27 0.0 0.0 0.00 0.00 0.00 31 1010.6
20260505203017 27 0.0 0.0 0.00 0.00 0.00 31 1010.7
20260505201522 27 0.0 0.0 0.00 0.00 0.00 31 1010.8
20260505200032 27 0.0 0.0 0.00 0.00 0.00 31 1011.0
20260505194526 26 0.0 0.0 0.00 0.00 0.00 30 1011.2
20260505193013 26 0.0 0.0 0.00 0.00 0.00 30 1011.4
20260505191520 27 0.0 0.0 0.00 0.00 0.00 29 1011.5
20260505190024 27 0.0 0.0 0.00 0.00 0.00 28 1011.6
20260505184506 27 0.0 0.0 0.00 0.00 0.00 29 1011.7
20260505183011 27 0.0 0.0 0.00 0.00 0.00 30 1011.8
20260505181519 27 0.0 0.0 0.00 0.00 0.00 33 1012.0
20260505180023 27 3.2 16.1 0.00 0.00 0.00 34 1012.1
20260505174521 27 159 1.6 16.1 0.00 0.00 0.00 44 1012.4
20260505173023 27 146 1.6 17.7 0.00 0.00 0.00 35 1012.6
20260505171512 26 309 3.2 16.1 0.00 0.00 0.00 35 1012.7
20260505170025 26 222 3.2 17.7 0.00 0.00 0.00 42 1012.9
20260505164544 26 245 1.6 14.5 0.00 0.00 0.00 38 1013.0
20260505163023 26 288 6.4 17.7 0.00 0.00 0.00 39 1013.1
20260505161510 25 276 4.8 17.7 0.00 0.00 0.00 40 1013.4
20260505153023 25 294 1.6 12.9 0.00 0.00 0.00 47 1013.7
20260505151526 23 350 4.8 0.0 0.00 0.00 0.00 44 1013.6